| time (UTC) | temp F | wind direction | speed MPH | gust MPH | rain 1hr in | rain 24hr in | rain mn in | humidity % | barometer mb |
| 20260510004913 | 53 | 333 | 1.0 | 7.0 | 0.00 | 0.00 | 0.00 | 70 | 1013.9 |
| 20260510003431 | 53 | 260 | 0.0 | 3.0 | 0.00 | 0.00 | 0.00 | 69 | 1013.8 |
| 20260510002431 | 53 | 33 | 2.0 | 7.0 | 0.00 | 0.00 | 0.00 | 69 | 1014.0 |
| 20260510001430 | 52 | 326 | 2.0 | 4.0 | 0.00 | 0.00 | 0.00 | 73 | 1014.2 |
| 20260510000433 | 53 | 344 | 2.0 | 6.0 | 0.00 | 0.00 | 0.00 | 73 | 1014.2 |
| 20260509235430 | 52 | 350 | 4.0 | 9.0 | 0.00 | 0.00 | 0.00 | 74 | 1014.0 |
| 20260509234431 | 52 | 4 | 4.0 | 7.0 | 0.00 | 0.00 | 0.00 | 74 | 1014.2 |
| 20260509233431 | 53 | 325 | 4.0 | 4.0 | 0.00 | 0.00 | 0.00 | 75 | 1014.0 |
| 20260509232909 | 53 | 3 | 0.0 | 6.0 | 0.00 | 0.00 | 0.00 | 76 | 1014.1 |
| 20260509231909 | 53 | 295 | 0.0 | 4.0 | 0.00 | 0.00 | 0.00 | 75 | 1014.1 |
| 20260509230444 | 53 | 12 | 1.0 | 3.0 | 0.00 | 0.00 | 0.00 | 73 | 1013.9 |
| 20260509225431 | 53 | 338 | 2.0 | 4.0 | 0.00 | 0.00 | 0.00 | 72 | 1013.8 |
| 20260509224431 | 53 | 66 | 3.0 | 4.0 | 0.00 | 0.00 | 0.00 | 74 | 1013.9 |
| 20260509224343 | 53 | 338 | 2.0 | 3.0 | 0.00 | 0.00 | 0.00 | 75 | 1013.8 |
| 20260509222430 | 53 | 34 | 0.0 | 3.0 | 0.00 | 0.00 | 0.00 | 75 | 1014.0 |
| 20260509221432 | 53 | 324 | 0.0 | 3.0 | 0.00 | 0.00 | 0.00 | 77 | 1013.8 |
| 20260509220431 | 53 | 11 | 1.0 | 2.0 | 0.00 | 0.00 | 0.00 | 77 | 1014.0 |
| 20260509215431 | 54 | 341 | 4.0 | 4.0 | 0.00 | 0.00 | 0.00 | 76 | 1013.9 |
| 20260509214433 | 54 | 288 | 0.0 | 6.0 | 0.00 | 0.00 | 0.00 | 74 | 1013.8 |
| 20260509213431 | 53 | 339 | 3.0 | 7.0 | 0.00 | 0.00 | 0.00 | 79 | 1013.8 |
| 20260509212431 | 53 | 322 | 1.0 | 4.0 | 0.00 | 0.00 | 0.00 | 77 | 1013.9 |
| 20260509211431 | 53 | 336 | 4.0 | 6.0 | 0.00 | 0.00 | 0.00 | 78 | 1013.8 |
| 20260509210430 | 53 | 319 | 2.0 | 6.0 | 0.00 | 0.00 | 0.00 | 76 | 1013.6 |
| 20260509205431 | 53 | 342 | 3.0 | 4.0 | 0.00 | 0.00 | 0.00 | 77 | 1013.5 |
| 20260509204432 | 54 | 340 | 3.0 | 6.0 | 0.00 | 0.00 | 0.00 | 75 | 1013.1 |
| 20260509203919 | 54 | 354 | 1.0 | 4.0 | 0.00 | 0.00 | 0.00 | 75 | 1013.2 |
| 20260509202431 | 55 | 122 | 0.0 | 7.0 | 0.00 | 0.00 | 0.00 | 74 | 1012.8 |
| 20260509201913 | 56 | 325 | 0.0 | 6.0 | 0.00 | 0.00 | 0.00 | 72 | 1013.0 |
| 20260509200431 | 56 | 225 | 0.0 | 6.0 | 0.00 | 0.00 | 0.00 | 70 | 1012.8 |
| 20260509195431 | 55 | 76 | 2.0 | 3.0 | 0.00 | 0.00 | 0.00 | 74 | 1013.1 |
| 20260509194431 | 55 | 340 | 0.0 | 4.0 | 0.00 | 0.00 | 0.00 | 76 | 1012.8 |
| 20260509193431 | 56 | 335 | 1.0 | 2.0 | 0.00 | 0.00 | 0.00 | 75 | 1012.7 |
| 20260509192431 | 56 | 39 | 0.0 | 4.0 | 0.00 | 0.00 | 0.00 | 74 | 1012.5 |
| 20260509191432 | 56 | 285 | 0.0 | 4.0 | 0.00 | 0.00 | 0.00 | 72 | 1012.5 |
| 20260509190431 | 57 | 129 | 1.0 | 6.0 | 0.00 | 0.00 | 0.00 | 72 | 1012.6 |
| 20260509185911 | 57 | 230 | 6.0 | 9.0 | 0.00 | 0.00 | 0.00 | 72 | 1012.6 |
| 20260509184431 | 58 | 300 | 0.0 | 8.0 | 0.00 | 0.00 | 0.00 | 73 | 1012.4 |
| 20260509183431 | 58 | 61 | 3.0 | 6.0 | 0.00 | 0.00 | 0.00 | 74 | 1012.3 |
| 20260509182431 | 58 | 287 | 1.0 | 4.0 | 0.00 | 0.01 | 0.00 | 74 | 1012.4 |
| 20260509181431 | 59 | 135 | 2.0 | 7.0 | 0.00 | 0.04 | 0.00 | 72 | 1012.2 |
| 20260509180911 | 59 | 321 | 0.0 | 6.0 | 0.00 | 0.06 | 0.00 | 72 | 1012.2 |
| 20260509175918 | 59 | 267 | 1.0 | 8.0 | 0.00 | 0.06 | 0.00 | 72 | 1012.3 |
| 20260509174431 | 59 | 317 | 2.0 | 6.0 | 0.00 | 0.06 | 0.00 | 73 | 1012.2 |
| 20260509173430 | 60 | 134 | 3.0 | 6.0 | 0.00 | 0.06 | 0.00 | 72 | 1012.1 |
| 20260509172431 | 60 | 138 | 3.0 | 9.0 | 0.00 | 0.06 | 0.00 | 75 | 1012.1 |
| 20260509171432 | 60 | 83 | 2.0 | 11.0 | 0.00 | 0.06 | 0.00 | 73 | 1012.2 |
| 20260509170431 | 61 | 276 | 2.0 | 8.0 | 0.00 | 0.06 | 0.00 | 73 | 1012.0 |
| 20260509165431 | 61 | 132 | 2.0 | 6.0 | 0.00 | 0.06 | 0.00 | 73 | 1012.0 |
| 20260509164431 | 60 | 50 | 4.0 | 7.0 | 0.00 | 0.06 | 0.00 | 73 | 1011.9 |
| 20260509163431 | 61 | 262 | 1.0 | 6.0 | 0.00 | 0.06 | 0.00 | 76 | 1012.1 |
| 20260509162910 | 61 | 172 | 5.0 | 7.0 | 0.00 | 0.06 | 0.00 | 70 | 1012.1 |
| 20260509161916 | 59 | 114 | 3.0 | 9.0 | 0.00 | 0.06 | 0.00 | 78 | 1012.1 |
| 20260509160431 | 60 | 87 | 1.0 | 8.0 | 0.00 | 0.06 | 0.00 | 76 | 1012.0 |
| 20260509155917 | 63 | 168 | 2.0 | 10.0 | 0.00 | 0.06 | 0.00 | 69 | 1011.8 |
| 20260509153431 | 62 | 193 | 3.0 | 8.0 | 0.00 | 0.06 | 0.00 | 68 | 1011.6 |
| 20260509152431 | 62 | 108 | 2.0 | 11.0 | 0.00 | 0.06 | 0.00 | 69 | 1011.7 |
| 20260509151431 | 62 | 297 | 0.0 | 7.0 | 0.00 | 0.06 | 0.00 | 67 | 1011.8 |
| 20260509150918 | 64 | 241 | 6.0 | 10.0 | 0.00 | 0.06 | 0.00 | 63 | 1011.9 |
| 20260509145431 | 63 | 100 | 1.0 | 9.0 | 0.00 | 0.06 | 0.00 | 66 | 1011.8 |
| 20260509144906 | 61 | 51 | 2.0 | 17.0 | 0.00 | 0.06 | 0.00 | 67 | 1011.9 |
| 20260509143431 | 63 | 62 | 8.0 | 13.0 | 0.00 | 0.06 | 0.00 | 63 | 1011.7 |
| 20260509142431 | 62 | 89 | 3.0 | 13.0 | 0.00 | 0.06 | 0.00 | 69 | 1011.9 |
| 20260509141431 | 61 | 119 | 4.0 | 10.0 | 0.00 | 0.06 | 0.00 | 71 | 1011.9 |
| 20260509140431 | 62 | 154 | 1.0 | 8.0 | 0.00 | 0.06 | 0.00 | 68 | 1011.8 |
| 20260509135430 | 63 | 339 | 4.0 | 13.0 | 0.00 | 0.06 | 0.00 | 63 | 1011.5 |
| 20260509134431 | 64 | 151 | 1.0 | 10.0 | 0.00 | 0.06 | 0.00 | 62 | 1011.5 |
| 20260509133432 | 64 | 238 | 1.0 | 6.0 | 0.00 | 0.06 | 0.00 | 63 | 1011.5 |
| 20260509132433 | 61 | 18 | 2.0 | 11.0 | 0.00 | 0.06 | 0.00 | 69 | 1011.5 |
| 20260509131433 | 61 | 209 | 4.0 | 9.0 | 0.00 | 0.06 | 0.00 | 71 | 1011.6 |
| 20260509130432 | 61 | 90 | 2.0 | 9.0 | 0.00 | 0.06 | 0.00 | 70 | 1011.8 |
| 20260509125431 | 61 | 115 | 7.0 | 8.0 | 0.00 | 0.06 | 0.00 | 72 | 1011.7 |
| 20260509124430 | 61 | 325 | 4.0 | 10.0 | 0.00 | 0.06 | 0.00 | 71 | 1011.5 |
| 20260509123431 | 63 | 173 | 1.0 | 9.0 | 0.00 | 0.06 | 0.00 | 65 | 1011.5 |
| 20260509122432 | 62 | 30 | 2.0 | 7.0 | 0.00 | 0.06 | 0.00 | 66 | 1011.4 |
| 20260509121431 | 61 | 230 | 4.0 | 8.0 | 0.00 | 0.06 | 0.00 | 69 | 1011.5 |
| 20260509120431 | 63 | 95 | 2.0 | 13.0 | 0.00 | 0.06 | 0.00 | 66 | 1011.4 |
| 20260509115432 | 64 | 226 | 6.0 | 11.0 | 0.00 | 0.06 | 0.00 | 65 | 1011.1 |
| 20260509114431 | 62 | 128 | 6.0 | 13.0 | 0.00 | 0.06 | 0.00 | 70 | 1011.3 |
| 20260509113913 | 61 | 179 | 3.0 | 14.0 | 0.00 | 0.06 | 0.00 | 72 | 1011.2 |
| 20260509112430 | 61 | 218 | 4.0 | 10.0 | 0.00 | 0.06 | 0.00 | 71 | 1011.4 |
| 20260509112352 | 62 | 226 | 2.0 | 10.0 | 0.00 | 0.06 | 0.00 | 69 | 1011.3 |
| 20260509110444 | 62 | 277 | 3.0 | 11.0 | 0.00 | 0.06 | 0.00 | 71 | 1011.3 |
| 20260509105431 | 62 | 205 | 4.0 | 14.0 | 0.00 | 0.06 | 0.00 | 69 | 1011.3 |
| 20260509104432 | 62 | 158 | 8.0 | 11.0 | 0.00 | 0.06 | 0.00 | 71 | 1011.3 |
| 20260509103912 | 62 | 121 | 4.0 | 11.0 | 0.00 | 0.06 | 0.00 | 70 | 1011.1 |
| 20260509102431 | 61 | 142 | 3.0 | 10.0 | 0.00 | 0.06 | 0.00 | 74 | 1011.0 |
| 20260509101430 | 61 | 297 | 3.0 | 10.0 | 0.00 | 0.06 | 0.00 | 72 | 1011.0 |
| 20260509100422 | 62 | 155 | 5.0 | 9.0 | 0.00 | 0.06 | 0.00 | 67 | 1011.1 |
| 20260509095420 | 61 | 186 | 2.0 | 9.0 | 0.00 | 0.06 | 0.00 | 69 | 1011.1 |
| 20260509094420 | 61 | 165 | 4.0 | 9.0 | 0.00 | 0.06 | 0.00 | 68 | 1011.2 |
| 20260509093422 | 61 | 144 | 5.0 | 8.0 | 0.00 | 0.06 | 0.00 | 67 | 1011.1 |
| 20260509092419 | 62 | 130 | 6.0 | 9.0 | 0.00 | 0.06 | 0.00 | 67 | 1010.9 |
| 20260509091429 | 60 | 116 | 6.0 | 10.0 | 0.00 | 0.06 | 0.00 | 70 | 1010.7 |
| 20260509090430 | 61 | 91 | 2.0 | 8.0 | 0.00 | 0.06 | 0.00 | 69 | 1010.6 |
| 20260509085421 | 61 | 158 | 3.0 | 6.0 | 0.00 | 0.06 | 0.00 | 69 | 1010.5 |
| 20260509084420 | 59 | 133 | 2.0 | 4.0 | 0.00 | 0.08 | 0.00 | 73 | 1010.4 |
| 20260509083421 | 60 | 353 | 1.0 | 2.0 | 0.00 | 0.09 | 0.00 | 75 | 1010.4 |
| 20260509082420 | 59 | 26 | 0.0 | 2.0 | 0.00 | 0.12 | 0.00 | 75 | 1010.4 |
| 20260509081421 | 57 | 264 | 0.0 | 3.0 | 0.00 | 0.15 | 0.00 | 80 | 1010.3 |
| 20260509080422 | 57 | 99 | 1.0 | 4.0 | 0.00 | 0.21 | 0.00 | 78 | 1010.2 |
| 20260509075420 | 57 | 15 | 0.0 | 3.0 | 0.00 | 0.21 | 0.00 | 79 | 1010.2 |
| 20260509074902 | 55 | 51 | 1.0 | 4.0 | 0.00 | 0.21 | 0.00 | 82 | 1010.0 |
| 20260509073420 | 54 | 340 | 2.0 | 4.0 | 0.00 | 0.21 | 0.00 | 83 | 1010.2 |
| 20260509072420 | 53 | 342 | 4.0 | 6.0 | 0.00 | 0.21 | 0.00 | 84 | 1010.0 |
| 20260509071422 | 53 | 329 | 2.0 | 3.0 | 0.00 | 0.21 | 0.00 | 85 | 1009.7 |
| 20260509070420 | 52 | 340 | 1.0 | 4.0 | 0.00 | 0.21 | 0.00 | 84 | 1009.7 |
| 20260509065420 | 52 | 336 | 1.0 | 3.0 | 0.00 | 0.21 | 0.00 | 84 | 1009.7 |
| 20260509064421 | 52 | 326 | 3.0 | 7.0 | 0.00 | 0.21 | 0.00 | 84 | 1009.4 |
| 20260509063422 | 52 | 330 | 3.0 | 7.0 | 0.00 | 0.21 | 0.00 | 84 | 1009.2 |
| 20260509062854 | 52 | 346 | 3.0 | 8.0 | 0.00 | 0.21 | 0.00 | 84 | 1009.2 |
| 20260509062347 | 52 | 349 | 5.0 | 7.0 | 0.00 | 0.21 | 0.00 | 84 | 1009.1 |
| 20260509060420 | 51 | 350 | 6.0 | 8.0 | 0.00 | 0.21 | 0.00 | 86 | 1009.1 |
| 20260509055420 | 52 | 340 | 2.0 | 6.0 | 0.00 | 0.21 | 0.00 | 85 | 1009.0 |
| 20260509054420 | 52 | 356 | 2.0 | 4.0 | 0.00 | 0.21 | 0.00 | 86 | 1009.0 |
| 20260509053420 | 52 | 343 | 1.0 | 6.0 | 0.00 | 0.21 | 0.00 | 86 | 1008.6 |
| 20260509052853 | 53 | 344 | 2.0 | 4.0 | 0.00 | 0.21 | 0.00 | 85 | 1008.8 |
| 20260509051420 | 53 | 340 | 4.0 | 6.0 | 0.00 | 0.23 | 0.00 | 84 | 1008.6 |
| 20260509050434 | 53 | 353 | 3.0 | 4.0 | 0.00 | 0.23 | 0.00 | 85 | 1008.8 |
| 20260509045913 | 54 | 331 | 1.0 | 4.0 | 0.00 | 0.28 | 0.00 | 81 | 1008.6 |
| 20260509044420 | 54 | 349 | 2.0 | 7.0 | 0.00 | 0.30 | 0.00 | 82 | 1008.4 |
| 20260509043420 | 53 | 346 | 3.0 | 6.0 | 0.00 | 0.30 | 0.00 | 83 | 1008.6 |
| 20260509042420 | 52 | 353 | 0.0 | 4.0 | 0.00 | 0.30 | 0.00 | 85 | 1008.6 |
| 20260509041429 | 53 | 338 | 2.0 | 7.0 | 0.00 | 0.30 | 0.00 | 84 | 1008.6 |
| 20260509040419 | 53 | 346 | 4.0 | 6.0 | 0.00 | 0.31 | 0.00 | 83 | 1008.5 |
| 20260509035420 | 53 | 335 | 5.0 | 6.0 | 0.00 | 0.31 | 0.00 | 84 | 1008.4 |
| 20260509034420 | 52 | 348 | 2.0 | 4.0 | 0.00 | 0.35 | 0.00 | 85 | 1008.9 |
| 20260509033430 | 53 | 338 | 1.0 | 3.0 | 0.00 | 0.40 | 0.00 | 84 | 1008.8 |
| 20260509032902 | 53 | 343 | 1.0 | 4.0 | 0.00 | 0.47 | 0.00 | 83 | 1008.4 |
| 20260509031422 | 54 | 357 | 3.0 | 7.0 | 0.00 | 0.47 | 0.00 | 82 | 1008.9 |
| 20260509030420 | 53 | 357 | 4.0 | 4.0 | 0.00 | 0.48 | 0.00 | 83 | 1008.6 |
| 20260509025420 | 53 | 280 | 0.0 | 4.0 | 0.00 | 0.49 | 0.00 | 81 | 1008.5 |
| 20260509024419 | 54 | 344 | 1.0 | 4.0 | 0.00 | 0.50 | 0.00 | 79 | 1008.5 |
| 20260509023420 | 53 | 350 | 4.0 | 4.0 | 0.00 | 0.50 | 0.00 | 79 | 1009.0 |
| 20260509022855 | 53 | 344 | 2.0 | 6.0 | 0.00 | 0.51 | 0.00 | 79 | 1008.9 |
| 20260509021421 | 53 | 338 | 1.0 | 6.0 | 0.00 | 0.61 | 0.00 | 78 | 1008.6 |
| 20260509020420 | 53 | 325 | 2.0 | 4.0 | 0.00 | 0.70 | 0.00 | 79 | 1008.6 |
| 20260509015424 | 54 | 344 | 3.0 | 4.0 | 0.00 | 0.73 | 0.00 | 78 | 1009.0 |
| 20260509014419 | 54 | 340 | 2.0 | 3.0 | 0.00 | 0.75 | 0.00 | 78 | 1008.9 |
| 20260509013900 | 54 | 327 | 2.0 | 6.0 | 0.00 | 0.79 | 0.00 | 80 | 1008.9 |
| 20260509012430 | 54 | 199 | 0.0 | 4.0 | 0.00 | 0.83 | 0.00 | 76 | 1008.8 |
| 20260509011420 | 54 | 310 | 1.0 | 3.0 | 0.00 | 0.85 | 0.00 | 76 | 1008.9 |
| 20260509010420 | 54 | 245 | 0.0 | 4.0 | 0.00 | 0.86 | 0.00 | 79 | 1008.8 |
| 20260509005420 | 54 | 146 | 0.0 | 4.0 | 0.00 | 0.86 | 0.00 | 79 | 1008.8 |